Wind_Speed
9 5 3 4 5 5 5 6 6 5 4 3 2 2 2 1 3 4 3 5 11 7 6 11 10 9 6 5 9 15 19 19 20 21 23 25 27 29 29 30 33 36 37 37 37 37 36 33 30 28 26 24 23 24 26 27 27 26 25 26 25 25 25 25 24 25 24 24 23 22 22 20 18 16 15 12 10 8 6 6 6 5 5 5 5 5
6 5 4 5 6 6 5 5 3 2 3 1 1 0 1 2 3 5 3 4 9 7 5 7 7 7 6 5 8 12 13 15 20 22 24 26 26 27 29 30 32 33 33 33 35 37 36 35 33 30 29 27 25 25 26 28 27 27 27 26 26 25 26 26 26 26 25 25 24 23 21 19 18 16 15 12 9 8 7 7 7 6 6 6 7 6
3 3 4 6 6 4 2 3 4 1 2 2 1 1 2 2 3 4 4 3 5 6 3 4 7 7 5 5 8 12 13 14 20 23 24 26 25 26 29 30 31 31 30 32 35 36 37 37 35 33 32 29 27 25 25 27 28 28 28 27 27 26 26 27 26 26 26 24 23 22 20 19 18 16 13 11 8 7 8 8 8 8 7 7 7 6
3 4 6 7 5 4 1 2 4 2 0 2 3 2 3 2 1 2 4 4 2 2 2 4 5 4 2 4 7 14 17 14 17 20 22 26 27 28 29 30 31 31 32 33 35 36 37 38 37 36 34 31 29 27 26 27 28 30 30 29 28 28 27 27 27 27 26 25 23 22 21 19 18 16 13 12 10 9 9 9 9 9 8 8 7 6
4 6 4 5 6 5 3 0 3 0 2 2 4 4 3 2 3 4 3 2 3 3 1 4 1 4 2 5 5 9 14 13 15 18 20 25 28 27 26 27 30 33 34 34 35 37 38 38 38 37 36 33 32 30 28 28 29 30 31 30 30 29 28 27 27 27 27 26 25 24 22 21 20 18 16 15 14 13 12 11 10 9 9 8 7 6
5 6 2 5 3 5 3 3 3 5 2 3 4 7 7 6 6 4 1 2 4 3 3 3 2 4 3 5 5 6 9 10 13 17 20 25 27 26 26 27 29 32 34 35 36 37 37 38 39 38 38 36 35 32 30 28 28 29 30 31 30 30 30 29 28 28 27 27 27 26 24 23 23 22 21 19 17 15 14 11 10 9 8 8 8 7
3 3 3 5 4 5 4 4 4 6 4 2 4 8 9 8 6 5 3 2 1 2 4 2 2 3 4 4 6 6 8 10 11 13 18 24 26 27 30 29 28 30 33 35 35 36 37 39 40 40 39 38 37 33 30 29 28 28 29 31 32 31 31 31 30 29 29 29 28 27 25 24 23 23 22 19 17 15 13 11 9 9 9 9 8 8
3 1 1 3 4 4 3 4 5 7 6 3 5 6 8 7 6 6 6 4 3 2 3 1 3 1 4 4 5 7 7 8 10 11 15 22 26 29 31 33 31 31 33 35 36 37 38 40 41 41 41 39 37 34 32 31 31 30 29 30 32 32 31 32 32 31 30 30 29 28 27 25 24 22 20 18 17 16 14 12 11 10 10 10 10 9
2 2 1 3 4 3 4 5 6 9 5 5 6 7 7 7 6 5 6 4 2 1 3 3 2 1 4 4 2 8 7 9 13 14 13 19 26 30 32 35 35 33 33 36 38 39 39 41 42 42 41 40 37 36 35 33 32 31 30 29 31 32 32 32 33 33 32 30 29 28 27 26 25 23 20 18 17 17 15 14 13 12 12 12 11 10
0 2 3 4 3 3 5 5 6 10 6 4 5 5 2 3 3 3 5 4 2 1 4 5 4 2 4 4 1 6 7 10 13 12 13 20 27 31 33 36 37 35 34 36 39 41 42 42 42 42 42 41 39 38 37 35 33 33 32 30 30 32 33 33 33 33 32 31 30 29 28 27 26 25 23 21 19 18 17 16 15 14 13 13 12 11
3 2 4 5 2 4 5 3 4 8 5 2 3 3 3 4 3 3 1 3 3 1 6 7 8 5 2 4 3 5 5 8 10 8 10 17 24 30 33 36 38 38 36 37 39 41 42 43 42 42 43 42 42 40 39 38 36 35 35 33 31 30 32 34 34 34 33 32 31 29 28 27 27 27 25 23 21 20 19 18 17 15 14 14 13 12
6 4 2 2 4 6 3 1 1 1 1 2 2 4 3 2 3 4 4 2 2 4 6 4 6 5 1 4 3 4 7 7 6 8 11 16 24 32 36 37 39 40 39 38 39 41 41 42 42 42 44 44 44 43 42 42 40 38 37 36 33 31 31 34 35 35 34 33 32 31 29 28 27 27 26 25 23 22 21 19 18 16 15 15 15 14
5 2 5 5 6 12 6 1 3 5 5 4 4 5 4 1 2 0 1 1 3 4 4 1 4 3 3 2 4 7 10 11 8 8 11 17 26 33 37 39 40 40 41 39 39 42 42 43 43 44 45 45 45 46 45 44 43 41 39 38 36 33 31 32 34 36 35 34 33 32 30 29 28 27 27 26 24 23 22 20 20 19 17 17 16 16
2 2 9 7 7 13 8 3 2 2 4 4 3 5 4 3 2 3 2 0 2 4 4 1 3 1 2 1 5 8 9 13 15 16 14 13 23 31 35 39 40 39 41 42 40 41 43 44 45 46 46 47 47 47 46 46 45 43 42 40 39 36 32 31 32 34 36 35 34 33 31 30 29 28 27 26 25 24 23 22 22 21 19 17 17 16
3 1 7 5 4 10 7 2 1 3 1 3 2 4 3 4 4 3 3 3 3 3 3 2 3 3 3 4 3 7 11 18 22 24 24 21 13 25 33 33 36 39 39 41 42 42 44 45 46 47 47 48 48 48 48 47 46 45 44 43 41 38 36 33 31 32 34 36 35 33 32 32 30 28 27 27 25 25 23 23 23 22 21 19 17 16
4 1 5 5 4 6 5 4 2 2 2 2 1 4 3 3 4 2 3 5 4 3 1 1 3 2 4 5 7 13 14 20 25 27 28 29 24 13 28 31 33 38 39 41 42 43 44 44 45 47 48 49 49 49 49 49 48 47 46 45 43 40 38 35 33 31 32 34 35 34 33 33 32 30 29 28 26 26 24 23 23 23 23 21 18 17
3 0 6 7 5 5 6 6 4 6 1 2 3 2 2 3 4 2 1 1 3 4 2 1 1 4 2 1 11 18 16 18 22 25 25 26 30 17 15 29 34 37 39 42 44 44 44 44 45 47 48 49 49 50 51 50 50 49 47 46 44 42 40 37 35 32 30 32 34 35 34 34 33 32 31 29 28 26 26 24 23 23 24 22 20 18
2 1 4 5 4 8 12 7 2 7 5 2 2 1 3 2 3 2 1 2 4 3 2 2 3 5 4 1 9 18 19 19 18 18 22 25 28 27 17 16 28 37 40 42 44 44 44 44 45 47 48 49 50 50 51 51 50 49 48 46 45 44 43 40 37 34 31 30 32 34 35 34 34 33 32 30 29 27 27 26 24 24 24 23 21 19
3 1 3 3 2 8 13 7 1 8 11 4 2 2 1 3 1 1 2 2 2 2 1 3 3 4 4 3 10 16 17 18 17 15 17 22 25 26 27 25 20 31 37 40 41 41 43 45 46 47 48 49 50 50 50 50 50 50 49 48 46 44 43 40 38 36 34 32 31 32 34 34 34 34 32 32 30 29 29 28 26 24 24 23 22 20
2 2 2 5 5 5 6 6 2 7 9 5 4 4 3 2 2 1 1 3 2 3 3 1 3 3 3 4 8 12 12 13 15 14 13 18 24 25 27 31 25 25 34 38 41 42 43 45 46 47 48 49 49 49 49 49 50 50 50 49 47 46 44 42 40 37 35 34 32 31 33 34 35 34 34 33 32 31 30 29 27 26 24 24 23 22
1 3 1 6 7 4 3 3 2 3 5 5 5 5 5 3 1 2 2 2 2 3 3 2 3 1 3 3 5 8 10 11 12 12 14 19 25 26 30 36 29 20 33 38 41 43 43 44 45 46 47 48 48 48 48 49 50 50 50 50 49 48 46 45 43 40 38 35 33 32 32 33 34 35 35 34 34 33 31 30 29 27 25 25 24 23
2 2 2 3 5 4 2 4 3 1 3 5 4 4 4 3 2 3 2 3 2 3 2 3 4 2 2 2 3 5 7 10 13 13 15 22 29 30 34 40 37 17 21 34 37 39 41 42 42 43 44 44 46 47 48 49 49 50 50 50 50 49 48 47 45 42 40 37 36 34 32 32 33 35 36 36 35 34 33 32 31 29 28 26 26 25
2 3 3 2 2 1 4 6 4 1 4 6 5 4 3 2 3 4 2 1 2 3 1 2 4 3 2 2 5 7 8 9 14 17 16 20 27 35 40 43 43 32 10 17 29 32 34 37 38 38 40 42 44 46 47 48 49 50 50 50 50 50 49 48 46 44 41 39 38 36 34 33 33 34 35 36 37 36 35 34 33 31 30 29 27 27
2 3 3 2 3 4 5 5 5 3 4 5 4 4 4 3 2 1 3 2 2 3 2 2 2 3 3 4 8 10 11 12 15 18 18 20 24 35 45 47 45 40 28 9 8 20 25 29 32 34 37 40 43 44 46 48 48 49 50 50 50 50 49 48 47 45 44 42 40 38 36 35 34 34 35 36 37 37 37 36 35 34 33 31 30 29
2 2 3 3 3 4 4 4 5 4 4 3 2 5 5 5 5 2 1 2 2 1 2 3 2 3 3 5 9 11 12 13 16 18 18 19 23 32 42 45 46 44 37 28 15 2 11 19 25 30 34 37 40 42 44 46 48 48 49 50 50 50 49 49 48 47 46 44 42 41 39 38 37 36 36 35 36 37 37 38 37 36 35 34 33 32
2 2 3 4 3 2 1 1 2 3 3 2 3 6 6 6 8 3 2 4 1 1 1 3 3 4 2 6 10 12 12 13 17 20 20 19 21 31 38 40 43 46 42 36 29 18 8 5 14 22 28 33 37 40 42 44 46 47 48 49 49 49 49 49 48 48 47 46 45 43 42 40 39 38 37 36 36 36 37 38 39 39 38 37 36 35
3 3 2 5 5 4 5 5 4 1 2 2 4 7 6 6 6 3 3 2 2 1 2 2 3 3 7 10 11 11 12 12 14 19 21 21 21 29 37 36 39 46 45 40 36 28 20 11 3 9 19 26 31 37 40 42 44 45 47 48 48 48 49 48 48 48 48 47 46 45 44 42 41 39 38 36 35 35 36 37 39 40 40 40 39 38
4 3 3 5 3 3 5 4 3 1 1 2 3 6 6 6 6 4 2 2 3 3 2 5 1 4 8 10 10 10 10 11 13 17 19 20 20 26 36 37 39 44 45 43 40 34 28 22 14 5 6 15 23 29 34 38 41 43 45 46 47 47 48 48 48 48 48 48 47 46 45 43 41 40 38 37 36 36 36 37 38 39 40 41 41 41
5 2 1 3 2 2 1 0 2 2 0 2 2 3 4 6 6 3 2 4 3 3 3 5 1 5 8 10 9 9 10 10 13 16 17 19 21 25 34 38 38 41 42 43 42 38 33 29 23 17 7 4 13 21 26 30 36 41 43 45 46 47 47 48 48 48 48 48 48 46 44 43 42 41 39 38 37 37 37 36 36 37 38 40 41 42
4 1 1 2 2 3 2 1 1 2 2 4 3 2 3 5 4 3 3 3 1 3 4 4 2 5 7 10 8 9 11 11 13 15 16 20 22 23 28 34 35 36 38 39 39 38 35 32 28 23 15 7 5 11 18 23 29 36 41 44 45 46 46 47 48 48 48 48 47 46 44 43 42 41 40 39 38 37 37 36 36 36 36 37 39 40
3 1 1 3 4 3 4 3 2 1 1 3 4 4 4 4 3 3 3 4 3 3 4 4 3 5 6 11 9 9 12 13 15 17 17 19 21 21 24 29 31 32 34 35 36 37 36 34 31 26 21 15 8 1 8 16 24 30 36 40 43 45 46 46 47 48 48 48 47 45 44 44 43 42 41 40 38 37 37 36 36 36 35 35 35 37
3 2 2 4 4 3 3 4 6 3 1 0 3 5 5 4 3 2 3 5 4 4 5 4 4 4 7 10 9 10 12 14 15 16 17 18 21 22 23 25 27 28 30 32 34 34 35 35 33 30 26 21 15 9 3 7 16 24 30 35 39 43 45 45 47 47 48 47 46 46 45 44 44 43 42 41 39 38 37 37 37 37 36 35 35 34
2 3 1 3 3 3 4 4 5 4 5 2 3 3 2 3 3 1 3 5 4 3 3 3 4 3 6 8 8 9 10 11 12 14 16 19 22 23 23 23 24 25 27 29 31 32 33 33 32 31 28 25 21 16 11 6 8 16 24 31 35 39 43 45 45 46 47 47 46 46 45 44 44 43 42 41 39 38 38 38 38 37 37 36 35 34
2 4 2 2 3 2 6 5 5 4 2 3 4 2 2 2 4 2 2 3 3 3 3 2 3 4 7 8 7 8 8 6 9 12 14 18 22 23 23 24 24 24 26 27 28 29 30 31 30 30 28 25 23 20 16 11 8 10 17 26 32 36 40 44 45 45 46 46 46 45 45 44 44 44 42 41 40 39 39 39 38 37 36 36 35 36
3 4 2 1 3 1 3 5 5 1 3 4 4 3 2 2 2 1 2 4 4 3 3 3 3 5 8 9 9 13 12 3 5 13 16 18 21 22 23 25 25 25 25 26 27 27 27 28 29 29 28 26 23 21 18 14 11 9 13 18 25 31 36 40 43 44 45 45 45 44 44 44 44 43 42 41 41 41 40 39 38 37 36 36 36 36
4 3 2 1 2 1 1 3 2 4 5 3 3 3 2 2 3 3 2 2 3 4 3 4 5 6 10 11 12 18 15 3 1 13 20 20 21 21 22 24 26 26 25 24 25 25 25 25 26 27 27 25 23 21 18 15 13 10 11 13 18 24 30 35 40 43 43 44 44 43 43 43 43 42 42 41 41 42 41 40 40 38 36 36 36 36
6 4 2 1 1 2 2 1 1 3 5 3 1 1 1 1 1 1 1 2 3 6 6 5 5 8 12 13 16 21 15 2 4 11 22 23 22 20 20 22 24 25 25 24 23 22 21 22 23 25 26 25 23 22 19 16 13 11 9 11 14 19 24 29 35 40 41 42 42 42 41 42 42 42 41 41 41 41 39 38 38 38 38 38 37 36
6 3 4 3 1 2 3 1 2 3 3 3 4 3 1 2 4 2 1 2 2 8 10 7 5 8 11 13 17 19 13 2 1 9 20 24 23 21 20 20 21 23 24 24 24 22 20 20 22 23 25 25 24 22 21 17 14 12 9 8 10 14 18 23 29 34 38 39 40 40 40 40 41 41 40 40 40 39 37 34 32 34 36 38 39 39
6 3 4 4 1 2 4 1 1 2 4 5 5 5 5 4 3 1 1 1 1 8 12 9 8 10 11 12 16 14 9 4 1 10 21 26 24 22 21 20 20 22 22 23 24 24 22 20 20 21 24 25 24 23 22 20 17 14 11 8 7 7 11 18 23 28 32 35 36 37 39 40 40 40 40 39 38 37 38 36 32 29 29 31 32 33
5 3 3 3 2 3 4 2 2 3 4 4 5 5 5 3 1 3 1 3 2 7 11 11 11 12 12 14 13 9 4 3 6 15 23 25 22 20 19 20 21 21 21 22 23 24 23 20 18 19 23 25 25 24 23 21 18 17 15 12 11 10 5 9 16 22 27 31 34 34 35 37 38 39 39 39 37 35 36 37 36 31 27 26 25 25
3 2 1 3 3 4 5 3 2 3 4 4 4 2 3 1 2 3 3 3 4 8 11 12 13 13 14 15 12 7 7 9 13 20 24 23 21 20 17 18 20 20 20 21 21 22 23 22 19 17 19 23 24 24 23 21 19 18 17 14 12 11 9 6 6 14 20 25 30 34 34 34 35 36 37 38 37 36 35 34 35 32 27 25 25 26
0 1 1 2 3 3 3 2 2 4 4 5 3 1 2 2 3 4 3 5 7 9 12 14 15 15 16 16 15 15 18 19 19 22 23 22 22 21 19 19 19 19 20 21 20 21 23 23 20 16 16 20 23 23 22 22 20 19 18 16 13 10 8 7 5 6 14 19 24 30 33 34 35 37 38 38 38 37 36 34 34 33 28 24 25 27
3 2 1 2 3 2 1 2 1 4 4 6 5 2 2 3 3 4 6 8 8 10 14 16 17 17 18 19 21 22 25 27 24 23 23 23 22 21 21 20 19 19 20 20 20 21 22 23 22 18 15 16 19 21 22 22 21 20 19 18 16 13 9 7 7 6 9 14 17 23 28 30 32 35 37 38 38 36 35 33 34 34 30 27 27 29
2 3 2 2 2 3 3 4 3 4 7 8 4 2 4 4 6 8 8 8 10 12 14 15 17 18 18 20 23 25 26 28 28 25 23 24 24 23 21 20 20 20 19 19 20 21 22 23 23 20 16 14 15 18 21 22 21 20 20 19 18 15 11 9 9 8 8 10 13 16 20 22 25 28 31 33 34 34 32 30 31 32 31 29 29 31
4 4 3 2 3 3 4 6 4 7 10 7 4 5 5 6 7 7 7 9 12 13 13 15 17 18 18 19 22 24 25 27 29 27 25 24 25 25 23 22 21 20 19 19 20 22 23 23 23 21 19 15 14 15 18 20 21 20 20 20 19 17 14 11 11 9 8 9 11 15 18 19 20 23 24 26 28 31 31 30 29 29 29 30 31 33
4 4 4 1 2 3 6 9 8 9 8 7 6 6 6 5 5 5 7 9 11 12 13 15 17 18 19 19 21 24 26 26 29 30 28 26 27 26 25 25 23 22 20 20 20 22 24 24 23 22 20 16 13 13 14 16 18 19 19 19 17 16 16 14 12 10 9 9 10 13 18 19 20 21 21 22 24 27 28 29 29 28 27 29 32 34
3 6 5 1 1 1 4 5 6 9 11 9 7 9 8 4 4 5 7 9 11 13 14 15 17 18 19 20 21 24 26 26 28 31 30 29 29 28 27 25 25 24 22 21 20 21 23 24 24 23 21 19 16 13 13 14 15 17 18 19 18 16 16 15 14 11 10 10 10 11 15 18 20 21 21 23 25 27 28 30 30 29 28 29 32 34
3 8 5 2 3 3 4 6 6 8 10 11 13 14 9 5 4 7 9 10 12 14 15 16 16 17 19 20 22 25 27 28 28 30 31 30 29 29 28 27 26 25 24 22 19 19 22 25 25 24 23 22 19 16 15 14 14 16 17 19 19 18 17 16 15 13 11 11 10 10 12 15 18 20 21 23 24 26 28 30 30 30 30 32 33 35
7 7 4 3 3 2 6 10 10 9 11 13 13 10 7 5 7 10 10 11 13 15 17 17 16 17 19 21 23 25 27 29 29 29 31 32 31 30 29 28 27 26 25 24 21 20 22 25 26 26 25 23 20 18 17 15 14 15 16 18 18 19 18 17 15 14 14 13 12 10 11 14 17 18 19 21 23 24 25 26 27 28 31 33 35 36
7 4 3 3 1 2 5 9 8 5 5 8 7 6 6 7 9 11 11 12 14 16 17 17 18 19 20 22 23 25 27 30 30 30 31 33 33 32 30 29 28 27 26 24 23 21 22 24 26 25 25 24 22 20 18 16 15 14 15 16 17 17 17 17 16 15 15 14 13 12 12 13 15 18 18 19 21 22 22 22 23 26 29 33 36 37
12 10 8 7 5 7 11 13 10 7 8 10 8 7 7 8 10 12 12 13 16 17 17 17 19 21 22 24 25 26 28 30 30 30 31 33 34 34 32 30 29 29 27 25 24 24 23 23 24 25 25 25 24 22 19 17 16 15 14 15 16 16 16 16 16 16 16 15 14 14 13 13 13 16 18 19 20 20 20 21 22 24 27 31 35 37
Wind_Direction
164 167 196 183 192 195 204 193 176 177 149 112 106 118 167 217 287 261 261 213 176 171 213 202 216 234 217 195 190 185 185 192 197 196 197 196 194 194 194 195 197 200 204 205 206 208 211 213 214 213 213 214 215 215 215 214 210 206 205 205 202 199 197 195 191 188 188 189 190 194 197 199 195 192 192 191 190 191 193 204 206 200 202 208 209 205
160 186 209 185 194 199 201 185 154 138 136 113 129 74 270 198 259 262 267 238 181 182 233 205 216 240 217 191 185 180 185 198 199 197 198 199 197 195 196 198 200 203 204 203 205 207 210 212 214 215 214 214 216 216 215 215 213 209 208 208 205 201 199 198 195 192 193 193 194 198 200 200 198 196 196 193 191 196 201 206 203 198 201 208 211 207
179 230 218 197 194 178 175 153 133 120 142 128 128 144 237 239 285 288 308 318 178 191 261 191 204 237 223 182 173 180 194 206 205 204 201 199 200 199 198 198 199 201 202 203 205 206 208 211 213 214 215 216 217 218 217 216 216 213 211 209 208 205 202 200 198 197 198 198 198 201 203 204 203 201 198 195 197 203 205 203 199 199 201 206 210 207
185 246 226 199 165 149 226 129 109 47 49 156 150 155 230 258 319 282 310 352 107 181 284 171 195 258 239 173 172 186 195 203 210 213 210 204 204 205 202 200 198 199 201 203 204 206 207 209 211 214 216 217 217 218 218 217 216 215 213 211 209 208 205 203 201 201 201 202 202 202 204 207 208 207 203 202 202 200 200 200 200 200 201 204 206 207
212 245 219 159 145 160 211 207 117 90 293 232 188 178 193 211 209 223 261 1 42 355 343 109 72 309 232 180 184 184 187 196 204 208 213 211 210 210 208 205 202 201 202 203 204 206 207 208 210 214 217 218 218 219 219 219 218 216 214 213 211 210 208 206 204 202 202 203 203 203 203 206 211 210 207 207 201 194 194 197 199 200 201 204 204 207
247 253 176 137 155 154 172 241 189 173 240 298 220 193 186 200 219 222 201 65 37 342 258 123 61 298 257 200 202 172 175 193 196 199 209 211 211 212 212 210 207 205 204 206 206 207 208 209 211 215 218 218 219 221 221 221 220 218 217 215 214 212 210 209 207 204 204 205 205 205 204 206 209 208 207 206 198 193 194 194 197 202 204 206 206 207
256 270 166 170 186 149 156 250 216 162 157 296 243 196 186 197 207 194 162 129 100 273 256 176 149 275 298 238 211 175 179 194 191 199 207 208 209 211 213 212 210 208 206 207 208 208 209 210 212 214 217 219 221 222 222 222 221 220 219 217 216 215 212 211 210 208 208 208 208 208 210 211 212 211 209 205 198 196 195 196 201 207 208 209 209 209
199 357 50 161 161 150 164 239 214 160 142 236 238 177 172 194 199 187 172 180 213 259 322 8 132 266 303 262 204 163 177 202 204 209 207 206 208 211 214 214 212 211 208 207 208 209 211 212 213 215 217 220 223 225 223 222 221 220 220 219 217 217 215 212 211 211 211 211 211 211 212 215 217 217 213 206 201 201 201 202 206 210 210 211 211 210
194 122 186 156 128 151 196 228 194 158 164 238 216 172 169 182 178 172 175 197 223 47 316 293 138 178 281 284 167 154 179 211 215 215 208 205 207 210 214 215 215 215 213 211 210 211 212 213 215 216 219 223 225 226 225 223 222 221 221 219 218 218 217 215 213 213 214 214 214 213 214 216 219 221 217 211 208 207 208 208 208 209 209 209 209 209
312 113 158 129 105 198 227 247 181 165 195 220 174 164 132 121 130 135 164 170 94 95 250 239 177 173 278 292 144 162 200 218 216 216 211 208 207 209 214 216 216 217 216 215 213 213 214 216 217 218 220 224 225 226 227 226 225 223 221 220 219 219 218 218 217 215 216 216 216 215 215 217 219 221 218 215 214 213 212 212 209 207 207 207 208 208
323 79 108 87 52 261 253 268 182 179 199 160 119 109 54 35 53 65 85 106 88 257 252 223 183 160 296 279 213 188 226 225 212 211 210 212 212 211 213 216 216 217 217 217 215 216 216 217 218 218 219 222 224 225 227 227 226 225 223 221 219 220 219 219 219 219 218 217 218 217 216 218 220 222 220 216 215 214 213 212 208 206 207 207 209 211
357 38 30 1 5 353 346 43 51 38 34 96 126 116 103 353 25 35 4 58 132 250 268 233 164 137 205 269 270 301 318 304 242 214 204 204 209 212 213 214 215 215 216 217 215 215 216 215 216 216 218 220 222 223 225 226 227 226 225 223 221 219 219 220 221 221 220 219 220 219 219 220 221 223 223 220 217 215 214 212 207 205 208 209 209 212
20 34 328 316 3 13 23 81 3 7 32 64 104 103 106 16 28 110 284 147 198 243 274 228 127 126 213 241 355 354 346 338 316 278 243 217 210 211 212 213 213 213 214 215 215 214 214 214 214 215 216 217 219 222 224 225 226 226 226 224 222 219 217 219 221 223 222 221 221 221 221 221 222 224 226 225 222 219 218 215 210 209 211 211 210 212
38 347 350 353 352 358 18 72 8 334 13 26 110 115 125 130 113 193 224 51 215 243 295 292 161 213 253 14 5 7 5 357 354 345 324 271 229 217 214 214 213 212 213 213 214 214 213 213 213 214 215 216 218 221 223 225 226 226 226 225 223 221 218 218 221 224 223 223 223 224 224 224 223 224 226 226 224 222 223 220 216 215 217 217 214 214
112 83 354 7 334 343 6 55 231 214 311 319 185 128 119 146 144 183 203 161 178 225 327 355 186 203 161 145 31 16 12 8 6 1 358 349 291 230 218 217 214 213 213 213 214 214 214 214 213 214 215 215 217 220 221 224 225 226 227 226 224 222 220 218 220 223 224 224 224 225 226 227 226 225 226 227 226 224 225 225 222 220 222 222 219 217
102 129 319 314 298 342 358 328 336 131 195 282 96 90 87 150 154 153 179 173 159 141 86 183 203 224 179 160 24 15 12 11 7 1 2 1 348 268 217 214 215 214 214 213 214 214 214 215 214 214 214 215 216 218 220 222 224 226 226 226 225 223 222 220 220 222 224 225 225 226 227 227 227 226 226 227 227 225 224 226 227 225 225 226 222 219
77 106 309 325 325 357 356 322 16 67 161 248 49 72 203 167 142 125 172 227 70 115 172 252 291 336 308 187 7 6 7 9 7 2 357 353 356 344 232 214 213 215 215 214 214 214 214 214 214 214 214 215 215 217 219 221 224 226 227 227 226 225 224 223 221 222 224 225 225 225 226 228 228 227 226 227 227 225 223 225 227 227 227 227 224 220
103 203 307 349 331 320 335 331 59 38 24 109 81 295 245 129 112 114 120 14 42 127 206 4 47 17 11 287 353 3 6 4 1 357 354 351 356 354 327 259 224 216 217 217 216 215 214 214 214 215 215 215 216 217 219 221 223 225 227 228 228 227 225 224 224 223 224 226 226 226 226 227 228 228 227 228 228 227 225 224 224 226 225 225 224 222
68 71 291 329 279 298 335 6 87 354 4 65 119 329 66 109 111 20 99 136 109 153 174 16 39 42 31 332 352 7 5 0 358 356 358 355 352 348 338 322 272 229 220 219 217 216 215 214 214 214 215 216 217 218 220 221 222 224 226 228 229 229 228 226 226 225 225 226 228 228 227 227 228 228 228 229 229 229 227 225 224 224 224 224 225 226
37 74 277 298 312 315 348 31 42 328 345 25 34 11 29 109 147 56 87 145 146 156 164 60 26 24 358 327 359 10 3 3 3 359 2 357 350 345 340 335 312 252 225 219 218 217 215 215 215 215 215 216 216 217 218 218 220 222 225 227 228 229 229 228 228 227 227 227 228 229 229 228 229 229 229 229 230 230 229 227 226 225 225 225 226 228
29 66 23 301 325 7 31 16 2 310 341 16 30 23 3 348 16 58 40 49 100 135 161 118 74 12 306 330 358 360 2 13 9 2 9 5 358 352 350 352 342 275 234 222 218 218 217 215 215 216 216 216 216 216 216 217 219 221 223 225 227 227 228 228 228 228 228 228 229 230 230 230 230 230 230 231 231 231 231 230 228 227 227 226 226 226
43 82 80 338 351 37 33 308 301 245 56 57 59 31 347 336 44 82 54 354 32 101 138 135 126 179 288 1 3 350 360 12 11 9 14 14 12 7 0 3 7 345 249 230 222 219 218 217 216 216 215 215 214 214 216 217 218 220 222 224 225 226 227 228 229 229 229 230 230 231 231 232 232 231 231 232 232 232 232 231 230 229 230 228 226 225
88 100 76 38 355 298 262 292 327 65 88 75 64 33 354 3 64 101 145 310 358 24 32 101 121 191 239 34 23 354 348 1 12 13 10 9 14 17 14 12 16 19 356 240 229 225 222 219 217 215 215 215 215 214 215 216 217 219 222 223 224 226 227 228 229 230 230 231 232 232 233 233 233 233 232 233 233 234 234 233 231 231 232 231 228 227
60 75 53 9 314 308 288 306 345 27 66 51 22 20 17 347 347 174 174 149 69 23 20 72 95 219 241 24 23 1 354 4 15 15 13 9 11 20 23 21 19 21 26 30 229 227 225 223 220 216 215 215 215 215 215 216 217 219 221 222 223 226 228 228 229 230 231 232 233 233 234 234 234 234 234 234 234 235 236 235 234 233 233 232 231 230
19 71 74 63 11 348 342 337 337 350 33 45 331 343 4 357 351 355 101 66 79 82 98 121 154 233 244 10 13 5 2 9 13 11 13 15 17 22 25 24 23 22 24 32 41 131 213 221 222 220 219 217 216 216 216 216 217 218 220 221 223 225 227 228 229 230 231 232 233 234 235 235 236 236 236 236 236 236 237 237 237 236 235 234 234 233
72 97 106 109 127 186 197 239 273 307 346 15 337 336 356 11 4 8 68 49 95 182 82 139 205 258 325 14 10 5 4 8 9 7 9 10 17 28 28 24 25 27 25 25 30 39 61 179 211 218 221 222 219 218 217 217 217 218 220 222 224 225 226 227 228 230 231 232 233 234 235 236 237 237 238 238 238 238 238 238 238 239 239 238 237 237
93 73 81 119 138 168 178 210 237 258 342 342 345 342 349 360 359 36 85 65 158 158 335 215 216 317 359 14 13 6 5 9 5 4 8 4 7 27 33 27 26 29 28 27 28 30 36 48 104 203 215 221 223 221 220 219 218 219 220 222 223 224 225 227 228 230 232 233 233 235 236 237 238 239 240 241 241 241 240 240 240 240 241 242 242 241
98 47 40 98 108 178 176 209 288 57 133 292 332 337 337 340 355 40 84 223 157 85 308 248 226 14 2 10 19 12 6 11 9 6 8 1 1 24 33 30 28 28 27 28 28 27 29 31 33 52 192 211 218 221 223 222 221 221 222 223 223 223 224 227 228 230 232 233 234 236 237 238 240 241 242 243 243 243 243 242 242 242 243 244 244 245
107 66 356 101 39 311 181 241 349 52 51 297 308 314 326 339 353 6 260 245 166 140 239 262 344 39 11 4 19 22 12 12 11 9 9 6 6 22 33 32 29 27 26 26 26 26 27 27 28 32 48 172 201 212 218 222 224 225 224 224 224 225 226 227 228 230 231 232 235 237 239 240 241 242 243 244 244 245 245 244 244 244 244 244 245 246
105 90 284 115 65 359 352 342 37 74 10 309 297 296 315 321 318 288 280 301 233 198 253 301 14 77 29 357 9 32 23 20 21 16 15 16 12 17 30 34 31 27 26 25 23 23 24 25 27 29 35 57 152 198 207 212 219 224 226 226 225 225 226 227 227 229 231 233 236 239 240 240 241 242 243 244 245 246 246 246 245 245 245 245 246 247
86 116 304 89 73 345 328 355 17 87 182 266 298 331 347 343 333 322 340 6 7 323 328 349 59 81 12 348 3 33 28 26 29 22 17 18 16 15 24 31 30 27 27 26 22 20 20 21 24 26 28 31 35 119 203 206 210 216 222 226 227 227 227 227 227 229 231 234 238 239 240 240 241 242 243 244 245 246 246 246 246 246 246 246 246 246
74 92 349 69 68 307 304 1 346 338 87 41 329 338 344 353 353 346 33 43 30 336 327 5 58 41 344 344 4 26 27 26 27 22 18 18 20 20 21 23 25 25 25 26 23 20 18 18 18 20 22 21 15 8 326 221 210 211 215 221 226 229 228 226 227 229 232 235 237 238 239 240 241 242 243 244 245 246 247 247 247 247 247 247 247 247
108 105 54 80 79 287 296 350 344 3 42 19 305 315 308 319 327 322 73 56 35 1 354 33 48 7 334 348 5 14 19 24 22 20 20 20 20 21 19 17 19 20 22 24 24 21 18 16 14 14 16 16 12 5 350 312 235 215 213 215 220 225 227 227 227 229 232 234 235 237 238 240 241 242 244 245 246 247 248 248 249 249 249 249 250 250
120 105 120 132 102 275 293 343 18 35 38 254 261 280 223 266 318 314 104 76 43 48 77 75 31 359 349 357 4 353 349 10 28 25 25 22 18 16 15 14 14 16 19 21 22 22 19 16 13 11 10 10 9 5 355 332 290 237 218 215 216 220 225 228 228 229 232 233 234 237 239 240 241 243 246 247 247 248 248 249 250 251 251 252 252 252
113 95 113 138 103 224 295 19 43 7 241 240 274 296 233 213 303 314 120 101 65 52 72 57 22 357 352 354 350 342 334 327 51 32 25 19 12 9 9 9 10 11 13 16 17 19 19 15 11 8 7 5 3 1 356 342 316 271 234 220 216 217 222 228 229 229 231 233 235 237 238 239 241 243 245 247 247 247 248 250 251 252 253 253 254 255
131 122 127 131 109 109 25 63 114 246 268 280 312 322 341 18 11 35 80 82 51 37 16 13 6 347 348 350 348 348 342 258 184 19 18 13 6 3 2 3 6 7 7 7 9 13 16 14 10 6 3 2 360 358 356 352 338 306 261 234 222 218 220 225 230 230 231 232 234 236 237 238 240 242 243 244 245 246 248 249 251 253 254 255 256 257
134 133 130 125 157 128 103 151 237 312 328 334 339 350 49 16 310 81 97 283 37 41 11 352 351 347 350 349 347 351 353 256 228 358 9 8 3 358 354 355 2 5 4 1 359 2 8 9 9 4 360 360 360 357 356 356 353 336 291 254 236 226 220 221 226 229 230 232 233 235 236 237 238 240 241 242 242 244 246 248 251 253 254 255 256 257
117 137 153 143 157 115 102 16 346 6 316 256 238 255 316 303 264 198 152 251 38 31 12 2 354 349 353 352 348 350 358 26 228 339 352 355 355 354 349 348 353 358 1 1 356 354 357 1 5 2 356 358 359 356 355 356 355 349 321 273 245 231 221 217 219 221 225 229 232 234 235 236 237 238 239 240 241 243 245 246 250 253 254 255 257 258
70 62 116 114 99 113 116 132 178 190 245 234 218 253 314 318 271 177 60 275 345 18 13 11 358 352 357 356 352 351 357 23 344 322 334 340 343 347 346 344 347 351 355 357 356 352 350 352 359 357 352 354 357 355 355 357 356 348 330 306 289 261 223 210 209 211 215 219 225 230 233 235 237 238 238 240 242 245 246 245 246 248 251 252 253 256
52 42 79 110 160 162 145 171 207 221 250 227 204 251 305 314 138 95 33 265 304 5 8 6 352 346 348 349 353 1 7 3 315 314 325 330 331 336 341 340 341 344 347 350 351 350 347 346 349 351 351 351 353 353 353 355 355 348 334 320 322 325 294 220 206 203 207 212 215 219 225 230 233 236 239 241 244 246 247 246 243 243 246 248 247 250
27 27 98 141 178 187 180 196 255 257 233 201 197 258 324 7 127 151 207 263 327 347 352 353 343 335 334 336 340 330 305 307 307 310 318 323 322 325 331 333 333 335 338 342 343 343 346 347 347 349 349 348 347 348 350 350 350 346 338 329 327 331 333 314 235 205 204 212 215 216 219 222 227 232 237 240 245 247 248 247 244 244 248 252 250 249
37 79 118 146 160 182 184 185 280 285 229 177 160 95 77 124 186 211 268 325 333 329 335 337 330 326 326 321 317 308 303 304 308 310 314 317 316 317 319 322 325 327 330 334 335 336 340 343 346 348 346 343 342 343 346 346 346 344 340 334 330 327 326 330 316 233 213 215 219 220 221 222 225 229 233 236 239 243 245 246 246 246 249 254 255 252
178 165 224 203 167 137 109 151 229 278 212 151 119 92 142 172 226 287 314 317 312 318 327 324 318 319 319 312 308 309 307 306 307 309 311 309 308 309 310 313 317 320 322 326 328 329 332 336 341 345 345 342 341 341 343 344 344 342 339 334 331 329 320 310 320 302 246 233 227 221 220 223 226 230 234 237 239 241 242 243 244 244 245 250 254 254
199 173 193 233 192 135 144 193 226 217 177 153 134 185 202 234 284 298 298 295 304 316 320 316 312 312 312 309 308 307 305 304 304 306 307 305 302 301 302 305 309 312 315 319 321 323 325 327 332 338 342 344 342 339 339 342 341 339 336 332 331 336 330 301 297 312 297 274 258 234 223 223 225 226 230 235 238 239 238 237 238 239 242 246 250 252
222 190 165 204 217 177 196 227 212 156 155 165 202 227 241 277 284 272 269 286 305 315 315 313 312 308 306 308 308 305 303 302 302 302 304 303 299 296 295 297 300 303 307 311 313 316 318 319 323 329 334 339 339 334 333 336 338 335 333 330 328 333 336 316 296 305 319 302 271 245 234 232 229 227 228 231 233 234 234 232 231 233 238 243 246 248
219 175 137 150 272 283 267 250 218 190 203 224 231 250 287 294 262 253 274 292 305 314 315 312 310 306 305 307 305 303 303 303 302 300 301 301 299 295 291 289 290 292 297 302 306 310 311 311 314 320 326 332 333 330 329 333 335 332 328 327 326 327 332 328 313 305 313 310 277 244 234 233 232 233 235 236 236 236 236 234 231 231 236 240 243 246
222 179 169 179 247 276 276 254 207 196 210 222 248 280 286 260 234 267 292 302 310 315 315 311 309 305 302 302 303 304 304 304 303 302 301 302 300 296 291 285 283 285 289 292 299 305 306 305 308 313 320 325 326 325 325 328 331 331 327 325 327 328 327 328 324 314 308 306 290 257 237 230 228 230 234 238 240 241 240 237 233 232 235 239 241 245
182 174 182 191 174 188 253 271 249 225 230 253 279 284 264 229 259 287 293 302 312 315 314 312 310 307 303 302 304 305 304 303 303 303 303 303 301 299 294 285 279 279 282 285 290 296 299 300 303 307 312 318 321 320 319 319 325 330 329 326 326 327 326 326 328 325 318 311 301 279 254 239 231 227 228 231 236 239 239 235 233 235 239 242 243 245
144 161 184 181 188 247 283 274 262 260 266 269 271 261 232 237 284 290 289 300 311 315 315 312 309 308 307 306 307 306 304 303 304 304 303 302 301 299 296 289 280 274 274 278 282 287 291 295 298 300 303 309 314 317 315 313 315 322 327 327 325 324 324 324 326 328 326 322 318 302 276 256 243 235 231 231 232 236 237 236 237 243 249 250 250 249
148 169 163 145 204 255 253 247 236 233 260 259 250 240 241 265 286 286 288 302 313 316 317 316 312 310 309 309 310 308 303 302 303 303 300 299 298 298 297 291 282 272 266 269 274 278 283 289 292 294 297 300 305 310 311 310 308 310 318 325 325 324 324 324 325 328 328 326 324 317 300 278 257 244 240 241 241 240 240 240 244 249 253 254 253 251
199 208 185 177 207 228 242 250 238 220 244 260 264 265 266 275 285 285 291 306 314 316 319 320 317 315 314 313 313 309 304 303 303 302 299 297 297 297 296 290 280 270 264 262 265 271 277 281 285 288 291 294 298 302 305 305 304 304 309 318 324 326 326 326 328 330 328 324 319 313 308 299 277 255 247 249 252 252 249 247 248 250 252 254 253 251
Height
1494 1500 1505 1506 1506 1504 1503 1503 1504 1505 1506 1507 1509 1512 1514 1515 1513 1506 1504 1500 1499 1509 1512 1508 1509 1508 1508 1508 1507 1509 1510 1512 1514 1515 1516 1517 1519 1521 1523 1525 1526 1527 1528 1531 1534 1536 1538 1540 1542 1545 1547 1549 1552 1554 1556 1558 1560 1562 1564 1566 1567 1569 1571 1573 1575 1576 1578 1579 1581 1582 1583 1585 1587 1589 1590 1591 1592 1593 1593 1594 1595 1595 1596 1597 1598 1599
1495 1502 1504 1502 1502 1501 1501 1502 1503 1504 1506 1507 1509 1512 1513 1515 1511 1504 1503 1500 1498 1506 1509 1506 1509 1509 1507 1507 1507 1509 1511 1511 1511 1512 1514 1515 1517 1520 1521 1524 1525 1527 1530 1532 1534 1535 1537 1539 1541 1543 1545 1548 1550 1552 1554 1556 1559 1561 1563 1565 1567 1569 1571 1572 1574 1576 1577 1579 1580 1582 1583 1585 1587 1589 1590 1591 1592 1593 1593 1594 1595 1595 1596 1597 1598 1599
1499 1502 1501 1499 1499 1499 1501 1502 1503 1505 1506 1508 1509 1511 1514 1512 1509 1505 1503 1500 1499 1505 1508 1507 1510 1509 1505 1505 1505 1507 1509 1509 1510 1511 1513 1515 1517 1518 1519 1522 1524 1527 1529 1531 1532 1534 1535 1537 1539 1542 1544 1546 1548 1551 1553 1555 1558 1560 1562 1564 1566 1568 1570 1571 1574 1575 1577 1579 1580 1582 1584 1586 1587 1589 1590 1591 1592 1593 1593 1594 1594 1595 1596 1597 1598 1599
1504 1500 1496 1496 1498 1499 1501 1501 1503 1505 1506 1508 1509 1512 1513 1510 1510 1510 1505 1502 1501 1504 1506 1506 1508 1508 1505 1505 1505 1505 1507 1508 1511 1512 1514 1515 1515 1516 1518 1520 1523 1525 1527 1529 1531 1532 1534 1536 1538 1540 1542 1544 1547 1549 1551 1554 1556 1558 1560 1562 1564 1566 1569 1571 1573 1575 1577 1579 1581 1583 1585 1586 1588 1589 1590 1591 1592 1592 1593 1594 1594 1595 1596 1597 1598 1599
1500 1495 1492 1494 1497 1498 1501 1502 1503 1506 1507 1507 1507 1510 1510 1507 1509 1509 1506 1505 1504 1505 1504 1505 1513 1512 1507 1507 1506 1504 1506 1507 1509 1511 1513 1513 1514 1516 1518 1520 1522 1523 1525 1527 1528 1530 1532 1534 1536 1538 1540 1543 1545 1547 1549 1552 1554 1556 1559 1561 1563 1565 1568 1570 1572 1574 1577 1578 1580 1582 1584 1586 1587 1588 1589 1590 1590 1591 1592 1593 1594 1595 1596 1597 1598 1599
1495 1492 1491 1494 1496 1498 1500 1502 1502 1505 1509 1509 1504 1503 1505 1504 1505 1506 1506 1507 1512 1514 1505 1505 1521 1520 1507 1508 1507 1504 1506 1506 1507 1508 1509 1510 1512 1515 1517 1518 1520 1522 1524 1525 1527 1529 1531 1533 1535 1536 1538 1541 1543 1545 1548 1551 1553 1555 1558 1560 1562 1564 1566 1569 1571 1573 1575 1577 1579 1581 1583 1584 1585 1586 1587 1588 1589 1591 1592 1593 1594 1595 1596 1597 1598 1599
1492 1490 1490 1493 1495 1497 1501 1502 1500 1502 1509 1511 1502 1496 1499 1501 1503 1505 1506 1509 1515 1517 1505 1503 1519 1522 1511 1507 1505 1504 1506 1505 1505 1505 1505 1507 1510 1512 1513 1515 1518 1520 1522 1524 1526 1528 1529 1531 1533 1534 1536 1538 1541 1544 1547 1550 1552 1554 1556 1558 1560 1563 1565 1567 1570 1572 1574 1576 1578 1580 1581 1583 1584 1585 1587 1588 1590 1591 1592 1593 1594 1595 1596 1597 1598 1599
1490 1491 1491 1492 1494 1498 1501 1501 1498 1498 1506 1508 1498 1494 1498 1498 1502 1505 1505 1508 1510 1509 1508 1505 1511 1520 1517 1507 1501 1503 1507 1508 1505 1503 1502 1503 1506 1508 1510 1513 1515 1517 1519 1522 1524 1526 1527 1528 1530 1532 1534 1537 1540 1543 1546 1548 1550 1552 1554 1557 1559 1561 1564 1566 1568 1570 1572 1574 1576 1578 1580 1582 1583 1585 1587 1589 1590 1591 1592 1593 1594 1595 1596 1597 1598 1599
1489 1491 1492 1492 1495 1498 1498 1495 1493 1495 1501 1499 1492 1493 1495 1496 1500 1502 1504 1509 1508 1510 1516 1512 1511 1522 1520 1505 1500 1503 1507 1509 1504 1500 1499 1500 1502 1505 1507 1510 1512 1514 1516 1518 1521 1523 1525 1527 1528 1531 1533 1536 1539 1541 1544 1546 1548 1551 1553 1555 1557 1559 1562 1564 1567 1569 1571 1573 1575 1577 1579 1580 1582 1584 1587 1588 1590 1591 1592 1593 1594 1595 1596 1597 1598 1599
1489 1491 1490 1491 1495 1496 1492 1490 1490 1493 1495 1492 1491 1493 1493 1496 1499 1500 1505 1507 1509 1515 1518 1512 1511 1522 1521 1510 1507 1508 1507 1503 1498 1495 1496 1496 1498 1501 1503 1506 1509 1512 1514 1516 1518 1520 1522 1524 1526 1530 1532 1535 1537 1539 1542 1544 1547 1550 1552 1554 1555 1557 1560 1563 1565 1567 1569 1572 1574 1576 1577 1579 1581 1583 1586 1587 1589 1590 1591 1592 1593 1594 1595 1596 1597 1598
1489 1489 1489 1491 1495 1493 1489 1489 1489 1489 1490 1490 1492 1494 1496 1500 1499 1502 1506 1504 1513 1521 1511 1505 1508 1515 1520 1513 1507 1506 1499 1493 1492 1494 1495 1495 1497 1498 1500 1503 1505 1508 1511 1513 1516 1518 1520 1523 1525 1528 1530 1532 1535 1538 1540 1542 1545 1547 1550 1552 1554 1556 1558 1561 1563 1565 1568 1570 1572 1574 1576 1578 1580 1582 1584 1586 1587 1589 1590 1591 1592 1593 1595 1596 1597 1598
1491 1491 1491 1492 1493 1492 1489 1488 1489 1489 1489 1490 1493 1496 1501 1506 1505 1508 1510 1509 1522 1523 1506 1503 1508 1513 1520 1514 1506 1502 1494 1490 1492 1492 1491 1490 1491 1492 1494 1497 1500 1503 1507 1509 1512 1515 1518 1521 1523 1525 1527 1530 1533 1535 1537 1540 1542 1545 1547 1550 1552 1554 1556 1559 1561 1564 1566 1568 1570 1573 1575 1577 1579 1581 1582 1584 1586 1587 1589 1590 1591 1592 1594 1595 1596 1597
1496 1496 1495 1493 1492 1492 1490 1490 1490 1490 1490 1492 1493 1496 1507 1516 1518 1521 1522 1522 1525 1518 1507 1508 1509 1513 1519 1512 1507 1504 1497 1494 1493 1490 1489 1487 1486 1487 1489 1492 1495 1499 1502 1505 1508 1511 1514 1517 1519 1522 1524 1527 1529 1531 1534 1537 1540 1542 1545 1548 1550 1552 1554 1557 1559 1561 1564 1566 1568 1571 1573 1575 1577 1579 1581 1583 1584 1586 1588 1589 1591 1591 1593 1594 1595 1596
1501 1499 1497 1496 1494 1493 1494 1495 1497 1495 1493 1495 1496 1497 1507 1519 1526 1531 1533 1532 1526 1514 1508 1509 1509 1513 1515 1510 1507 1504 1499 1496 1493 1490 1489 1487 1486 1486 1487 1489 1492 1495 1498 1501 1503 1506 1509 1512 1515 1517 1520 1523 1526 1528 1531 1534 1537 1540 1542 1545 1548 1550 1552 1555 1557 1559 1562 1564 1567 1569 1572 1574 1576 1577 1579 1581 1583 1585 1587 1589 1590 1591 1592 1593 1594 1595
1510 1509 1505 1503 1502 1499 1497 1499 1501 1499 1498 1498 1497 1497 1501 1509 1519 1525 1525 1524 1521 1516 1513 1511 1512 1512 1510 1509 1506 1501 1500 1497 1493 1491 1488 1485 1486 1486 1487 1490 1491 1493 1495 1497 1500 1502 1505 1508 1511 1514 1517 1519 1522 1525 1529 1531 1534 1537 1539 1542 1545 1548 1550 1553 1555 1557 1559 1562 1565 1567 1570 1572 1574 1576 1578 1579 1581 1583 1585 1587 1589 1590 1591 1593 1594 1596
1515 1516 1511 1506 1505 1502 1501 1499 1498 1499 1500 1499 1497 1499 1503 1506 1510 1514 1515 1513 1511 1516 1519 1515 1509 1504 1501 1502 1500 1498 1498 1496 1493 1491 1488 1486 1485 1484 1486 1488 1489 1491 1493 1494 1497 1499 1501 1505 1507 1510 1513 1516 1519 1522 1525 1528 1531 1533 1536 1539 1542 1546 1548 1551 1553 1555 1558 1560 1563 1565 1568 1570 1572 1574 1576 1578 1580 1582 1584 1586 1587 1589 1591 1592 1594 1595
1517 1518 1512 1507 1504 1501 1502 1501 1498 1500 1502 1500 1500 1504 1505 1505 1507 1510 1514 1513 1509 1515 1520 1515 1511 1507 1502 1499 1498 1499 1498 1496 1495 1493 1491 1490 1487 1485 1485 1484 1485 1488 1489 1491 1492 1495 1498 1501 1504 1507 1509 1512 1515 1518 1521 1524 1527 1530 1534 1537 1540 1544 1546 1549 1551 1554 1556 1559 1561 1563 1565 1568 1570 1572 1574 1576 1578 1580 1582 1584 1586 1588 1590 1591 1593 1594
1517 1518 1515 1511 1507 1502 1500 1500 1499 1499 1501 1502 1505 1507 1504 1503 1505 1508 1513 1517 1517 1518 1518 1518 1522 1523 1518 1511 1506 1504 1502 1500 1500 1497 1495 1492 1489 1488 1487 1485 1485 1485 1486 1488 1489 1492 1496 1498 1501 1503 1506 1509 1511 1514 1518 1521 1525 1529 1532 1535 1538 1541 1544 1546 1549 1552 1554 1557 1559 1561 1563 1566 1568 1570 1572 1574 1576 1579 1580 1582 1584 1586 1588 1590 1591 1593
1517 1517 1516 1513 1511 1507 1500 1499 1502 1502 1500 1502 1505 1505 1504 1507 1509 1509 1512 1519 1521 1522 1523 1524 1528 1530 1530 1527 1518 1514 1512 1509 1505 1502 1498 1496 1493 1491 1489 1486 1485 1484 1484 1486 1488 1491 1493 1494 1497 1500 1503 1506 1509 1512 1515 1519 1523 1526 1529 1533 1535 1538 1541 1545 1548 1550 1552 1555 1557 1559 1561 1563 1566 1568 1570 1572 1575 1577 1578 1580 1582 1584 1586 1588 1590 1591
1517 1518 1518 1513 1509 1509 1506 1507 1516 1516 1507 1503 1505 1506 1507 1510 1511 1512 1514 1516 1517 1522 1527 1529 1532 1533 1530 1527 1522 1520 1519 1514 1509 1506 1502 1500 1498 1495 1492 1486 1482 1482 1482 1482 1484 1487 1489 1492 1494 1496 1499 1502 1506 1509 1513 1517 1520 1523 1527 1530 1533 1536 1540 1542 1545 1547 1550 1552 1554 1557 1559 1561 1564 1566 1568 1570 1572 1574 1576 1578 1580 1582 1584 1586 1588 1589
1517 1519 1522 1516 1510 1513 1518 1522 1526 1526 1519 1514 1516 1519 1520 1517 1514 1514 1518 1520 1518 1522 1526 1529 1539 1541 1529 1522 1522 1521 1518 1515 1513 1509 1505 1503 1500 1496 1493 1487 1480 1478 1478 1478 1480 1483 1486 1490 1493 1496 1498 1501 1504 1508 1510 1514 1517 1520 1524 1527 1530 1533 1537 1539 1542 1545 1547 1550 1552 1554 1556 1559 1561 1564 1566 1568 1570 1572 1574 1576 1578 1580 1582 1584 1586 1587
1519 1522 1524 1523 1521 1523 1527 1527 1524 1524 1524 1523 1526 1530 1529 1525 1522 1521 1523 1526 1524 1524 1526 1530 1540 1541 1528 1521 1522 1520 1518 1517 1514 1510 1507 1504 1501 1496 1492 1486 1479 1476 1477 1479 1480 1482 1485 1488 1492 1496 1498 1501 1503 1505 1508 1511 1514 1517 1520 1523 1527 1530 1533 1536 1539 1542 1545 1548 1550 1552 1554 1557 1559 1562 1564 1566 1568 1570 1572 1574 1576 1578 1580 1582 1584 1585
1521 1524 1525 1528 1530 1530 1528 1526 1525 1524 1523 1524 1527 1530 1530 1528 1529 1530 1529 1529 1529 1529 1529 1530 1536 1536 1527 1522 1522 1520 1518 1517 1515 1512 1508 1504 1501 1497 1492 1486 1480 1476 1476 1479 1482 1484 1486 1488 1491 1495 1498 1500 1501 1502 1505 1508 1510 1514 1517 1520 1524 1527 1529 1533 1536 1540 1543 1545 1547 1550 1552 1555 1557 1559 1561 1563 1566 1568 1570 1572 1574 1576 1578 1580 1582 1584
1522 1527 1528 1529 1531 1530 1526 1526 1526 1524 1524 1527 1529 1530 1531 1530 1531 1532 1530 1530 1533 1534 1533 1533 1534 1533 1526 1522 1522 1521 1519 1517 1515 1512 1509 1506 1502 1498 1494 1489 1485 1481 1478 1479 1481 1485 1488 1490 1492 1494 1496 1498 1500 1501 1503 1505 1508 1511 1514 1518 1521 1523 1527 1530 1534 1537 1540 1542 1545 1548 1550 1552 1554 1556 1558 1560 1563 1565 1567 1569 1572 1574 1576 1578 1580 1582
1524 1532 1531 1529 1535 1535 1531 1530 1528 1526 1529 1534 1534 1532 1532 1531 1529 1529 1529 1530 1534 1538 1537 1535 1533 1529 1526 1523 1522 1520 1518 1516 1514 1513 1511 1509 1504 1501 1497 1494 1490 1487 1484 1481 1482 1483 1486 1489 1492 1494 1495 1496 1498 1500 1502 1504 1507 1509 1512 1515 1517 1521 1524 1528 1531 1534 1537 1540 1542 1544 1547 1549 1551 1553 1555 1558 1560 1562 1564 1567 1569 1571 1573 1575 1577 1579
1526 1535 1532 1529 1534 1537 1537 1538 1537 1535 1536 1537 1537 1535 1532 1532 1530 1529 1531 1532 1536 1539 1538 1535 1531 1527 1526 1525 1523 1521 1518 1516 1514 1513 1511 1510 1508 1504 1501 1499 1497 1493 1490 1488 1486 1485 1486 1487 1489 1492 1495 1496 1498 1499 1501 1503 1505 1507 1510 1512 1515 1518 1522 1525 1528 1531 1534 1537 1539 1541 1544 1546 1548 1550 1552 1555 1557 1559 1562 1564 1566 1568 1570 1572 1574 1576
1528 1536 1535 1532 1532 1535 1539 1540 1539 1540 1540 1539 1539 1536 1533 1534 1533 1531 1533 1534 1536 1537 1535 1532 1530 1529 1528 1528 1526 1524 1521 1519 1517 1515 1513 1511 1509 1506 1504 1503 1501 1498 1496 1494 1491 1489 1488 1487 1488 1490 1492 1495 1497 1499 1500 1502 1504 1506 1508 1510 1513 1516 1519 1522 1525 1528 1530 1533 1536 1538 1540 1542 1545 1547 1549 1552 1554 1556 1559 1561 1563 1565 1566 1569 1571 1573
1531 1537 1537 1536 1537 1538 1539 1539 1538 1539 1540 1540 1540 1538 1535 1535 1534 1532 1533 1532 1533 1535 1533 1530 1531 1533 1533 1531 1530 1528 1526 1523 1521 1519 1516 1515 1512 1508 1506 1504 1502 1500 1498 1497 1495 1493 1491 1490 1490 1489 1490 1492 1496 1498 1500 1502 1504 1505 1507 1509 1511 1514 1516 1519 1522 1524 1527 1530 1532 1535 1537 1539 1542 1544 1546 1549 1551 1554 1555 1557 1559 1561 1563 1565 1567 1569
1533 1539 1539 1538 1539 1540 1539 1540 1539 1539 1539 1539 1538 1537 1537 1536 1535 1534 1533 1531 1533 1534 1531 1529 1532 1536 1536 1533 1531 1531 1529 1527 1524 1522 1521 1518 1515 1511 1508 1505 1504 1503 1501 1499 1498 1498 1496 1495 1493 1491 1490 1491 1493 1496 1499 1501 1503 1505 1506 1507 1509 1511 1513 1516 1519 1521 1524 1526 1528 1531 1534 1537 1539 1541 1544 1546 1548 1550 1552 1554 1556 1558 1560 1561 1563 1565
1534 1539 1539 1538 1540 1541 1541 1542 1541 1540 1541 1538 1536 1536 1537 1536 1534 1534 1533 1533 1533 1532 1532 1531 1532 1536 1537 1534 1532 1532 1531 1530 1527 1525 1523 1520 1517 1515 1512 1509 1508 1507 1505 1503 1502 1501 1500 1498 1496 1494 1492 1490 1491 1494 1496 1498 1501 1503 1504 1505 1506 1508 1510 1513 1515 1518 1520 1522 1525 1527 1530 1533 1536 1538 1540 1542 1544 1546 1548 1550 1552 1554 1556 1557 1559 1561
1534 1539 1540 1539 1540 1542 1541 1541 1541 1542 1542 1539 1536 1537 1538 1535 1533 1534 1535 1535 1535 1536 1536 1534 1534 1536 1536 1533 1532 1532 1532 1530 1528 1526 1524 1522 1520 1519 1516 1513 1511 1510 1508 1506 1505 1504 1502 1500 1498 1495 1493 1492 1492 1493 1493 1495 1497 1499 1502 1503 1504 1506 1508 1510 1512 1513 1516 1518 1520 1524 1527 1529 1532 1534 1536 1538 1540 1542 1544 1547 1549 1550 1552 1554 1555 1557
1533 1538 1540 1539 1542 1544 1542 1541 1541 1541 1541 1541 1539 1539 1538 1536 1535 1536 1536 1537 1538 1540 1538 1536 1538 1539 1537 1533 1532 1532 1531 1530 1528 1527 1526 1524 1523 1521 1519 1517 1514 1512 1510 1508 1507 1505 1503 1501 1499 1497 1495 1494 1493 1493 1493 1493 1494 1496 1498 1501 1502 1504 1505 1507 1509 1510 1512 1514 1517 1520 1523 1525 1528 1530 1532 1534 1537 1539 1541 1543 1545 1547 1548 1550 1552 1554
1534 1537 1539 1541 1543 1545 1543 1543 1541 1539 1540 1543 1541 1539 1539 1538 1537 1537 1537 1538 1538 1538 1539 1539 1540 1539 1536 1534 1532 1531 1531 1531 1530 1529 1528 1526 1524 1522 1521 1520 1517 1514 1512 1510 1508 1506 1505 1503 1502 1500 1498 1496 1495 1495 1494 1493 1493 1493 1494 1496 1499 1501 1503 1504 1505 1507 1509 1512 1514 1517 1519 1521 1524 1526 1528 1531 1533 1535 1537 1539 1541 1543 1545 1546 1548 1550
1535 1535 1539 1542 1544 1546 1545 1542 1542 1542 1544 1544 1541 1539 1540 1539 1538 1538 1538 1539 1538 1537 1538 1539 1538 1537 1535 1534 1533 1532 1531 1531 1531 1530 1529 1527 1525 1523 1522 1521 1518 1515 1512 1510 1508 1507 1506 1505 1504 1502 1500 1498 1497 1496 1495 1495 1494 1493 1492 1493 1495 1497 1499 1501 1502 1504 1506 1508 1511 1513 1515 1518 1520 1522 1525 1527 1529 1531 1533 1535 1537 1539 1541 1543 1545 1547
1535 1537 1541 1543 1544 1548 1547 1544 1545 1547 1544 1541 1539 1538 1538 1538 1538 1538 1539 1539 1539 1537 1537 1537 1536 1536 1535 1534 1533 1532 1531 1530 1530 1529 1528 1527 1526 1524 1522 1520 1518 1515 1512 1510 1509 1508 1507 1506 1505 1503 1501 1499 1498 1497 1496 1495 1494 1493 1492 1492 1493 1494 1496 1498 1499 1500 1502 1504 1507 1509 1512 1514 1516 1518 1521 1523 1525 1527 1529 1531 1533 1535 1537 1539 1541 1543
1535 1537 1540 1543 1545 1548 1549 1547 1547 1545 1540 1538 1539 1539 1537 1537 1538 1538 1539 1539 1539 1539 1538 1538 1537 1536 1535 1534 1532 1531 1529 1528 1529 1528 1527 1527 1525 1524 1522 1520 1518 1516 1513 1511 1510 1509 1508 1508 1506 1505 1503 1501 1499 1497 1496 1495 1494 1493 1492 1491 1492 1493 1493 1495 1496 1497 1499 1501 1503 1505 1508 1510 1512 1514 1516 1519 1521 1523 1525 1527 1528 1531 1533 1535 1537 1539
1534 1536 1539 1543 1546 1548 1550 1550 1547 1544 1541 1540 1540 1540 1539 1540 1540 1540 1541 1540 1539 1539 1538 1538 1537 1536 1535 1533 1532 1530 1528 1527 1527 1526 1525 1525 1525 1523 1522 1520 1519 1517 1514 1512 1512 1511 1510 1509 1508 1506 1505 1503 1500 1498 1497 1495 1494 1493 1492 1492 1491 1491 1491 1492 1493 1494 1496 1497 1499 1502 1504 1506 1508 1510 1512 1514 1516 1517 1519 1522 1524 1526 1529 1531 1533 1535
1533 1535 1536 1541 1545 1548 1550 1552 1552 1551 1547 1542 1540 1540 1539 1539 1539 1540 1542 1541 1539 1539 1538 1537 1537 1537 1535 1534 1532 1530 1527 1528 1528 1526 1524 1524 1524 1523 1522 1521 1519 1517 1514 1513 1512 1511 1511 1509 1508 1507 1505 1503 1501 1499 1497 1496 1494 1493 1492 1491 1491 1490 1489 1489 1490 1491 1493 1494 1496 1498 1500 1502 1504 1506 1507 1509 1511 1513 1515 1517 1519 1521 1524 1527 1529 1530
1534 1536 1536 1539 1545 1548 1550 1552 1554 1552 1544 1539 1539 1538 1538 1538 1537 1539 1542 1541 1538 1538 1538 1537 1536 1536 1535 1535 1533 1530 1529 1531 1531 1527 1524 1524 1523 1522 1521 1520 1518 1517 1515 1513 1513 1512 1511 1509 1507 1506 1505 1503 1502 1500 1498 1496 1494 1493 1493 1491 1490 1488 1486 1486 1486 1488 1489 1491 1493 1494 1496 1498 1500 1502 1503 1505 1507 1509 1512 1514 1516 1517 1518 1520 1522 1524
1536 1537 1538 1541 1544 1546 1548 1550 1551 1546 1539 1537 1538 1537 1537 1536 1537 1541 1544 1540 1536 1537 1537 1536 1536 1535 1534 1534 1534 1532 1532 1533 1532 1528 1525 1525 1523 1521 1521 1520 1518 1517 1515 1514 1514 1512 1511 1509 1507 1505 1503 1502 1501 1500 1497 1495 1494 1494 1493 1491 1489 1486 1485 1484 1484 1484 1485 1487 1489 1490 1492 1494 1496 1498 1500 1501 1503 1506 1508 1511 1513 1514 1513 1513 1514 1517
1539 1540 1541 1542 1542 1543 1545 1548 1547 1541 1535 1535 1536 1535 1535 1536 1539 1543 1542 1536 1535 1537 1536 1535 1535 1534 1533 1533 1533 1532 1532 1532 1531 1528 1526 1525 1523 1520 1520 1519 1518 1518 1516 1515 1515 1513 1511 1509 1507 1504 1503 1503 1502 1499 1497 1496 1495 1494 1494 1491 1488 1486 1485 1485 1484 1484 1485 1486 1487 1487 1488 1490 1492 1495 1497 1498 1500 1502 1504 1506 1508 1509 1509 1509 1509 1511
1541 1542 1544 1543 1543 1544 1544 1546 1546 1540 1532 1531 1534 1533 1534 1537 1538 1538 1535 1533 1534 1535 1534 1534 1534 1533 1532 1532 1531 1530 1529 1529 1529 1527 1526 1524 1522 1520 1519 1517 1517 1516 1516 1515 1514 1513 1511 1510 1508 1505 1504 1503 1502 1500 1497 1495 1494 1493 1492 1491 1489 1487 1485 1485 1484 1485 1485 1485 1485 1485 1486 1487 1489 1491 1492 1494 1496 1498 1499 1501 1503 1504 1505 1505 1506 1507
1538 1540 1542 1543 1544 1546 1547 1548 1547 1539 1530 1529 1532 1533 1533 1534 1533 1532 1531 1532 1533 1532 1532 1532 1532 1531 1531 1529 1528 1527 1526 1524 1524 1524 1524 1523 1521 1520 1518 1517 1515 1514 1514 1514 1513 1512 1511 1509 1508 1506 1503 1502 1501 1499 1497 1494 1494 1493 1492 1491 1489 1486 1485 1483 1483 1484 1484 1484 1483 1483 1483 1484 1486 1487 1489 1490 1492 1494 1495 1497 1499 1500 1500 1501 1502 1503
1536 1536 1538 1538 1538 1541 1543 1543 1538 1531 1527 1529 1530 1531 1532 1531 1530 1530 1530 1531 1531 1531 1531 1530 1529 1529 1529 1527 1525 1524 1522 1521 1521 1521 1521 1521 1520 1519 1517 1516 1515 1513 1512 1512 1512 1511 1509 1508 1506 1505 1502 1500 1499 1498 1496 1494 1493 1494 1493 1491 1488 1485 1484 1483 1482 1482 1482 1482 1482 1481 1481 1482 1483 1484 1485 1487 1488 1490 1490 1492 1494 1495 1496 1497 1498 1499
1533 1533 1534 1534 1534 1534 1534 1531 1528 1526 1527 1528 1528 1529 1529 1529 1529 1529 1529 1529 1529 1530 1529 1528 1528 1527 1526 1525 1523 1521 1520 1519 1518 1517 1517 1517 1517 1517 1516 1514 1513 1513 1511 1510 1509 1509 1508 1507 1505 1504 1502 1499 1497 1496 1496 1495 1494 1494 1494 1492 1488 1485 1483 1482 1481 1479 1478 1479 1481 1481 1480 1480 1481 1481 1482 1483 1485 1486 1486 1488 1488 1489 1491 1493 1494 1495
1531 1532 1532 1532 1533 1531 1528 1525 1526 1527 1527 1527 1527 1527 1528 1528 1527 1528 1528 1528 1528 1527 1527 1527 1526 1524 1524 1523 1521 1519 1518 1517 1515 1514 1514 1514 1514 1514 1514 1512 1511 1511 1510 1509 1507 1507 1507 1505 1504 1503 1501 1498 1496 1496 1496 1496 1495 1495 1494 1493 1490 1485 1482 1480 1478 1477 1476 1477 1479 1479 1479 1478 1479 1479 1479 1480 1481 1482 1483 1484 1484 1484 1486 1488 1489 1490
1530 1530 1531 1532 1533 1532 1527 1524 1524 1525 1525 1525 1526 1526 1526 1526 1526 1526 1526 1526 1525 1525 1525 1524 1523 1522 1522 1520 1519 1517 1515 1514 1513 1511 1510 1511 1510 1510 1510 1510 1509 1508 1508 1507 1506 1505 1504 1503 1502 1501 1499 1497 1496 1495 1496 1496 1495 1494 1493 1491 1488 1485 1481 1479 1476 1475 1475 1476 1476 1476 1476 1475 1476 1476 1476 1477 1478 1479 1480 1481 1480 1481 1481 1482 1484 1485
1527 1528 1529 1530 1530 1530 1526 1523 1523 1524 1524 1524 1524 1523 1524 1525 1525 1524 1524 1524 1523 1523 1522 1522 1521 1520 1519 1517 1517 1515 1512 1511 1511 1509 1507 1507 1506 1506 1506 1506 1505 1505 1504 1504 1504 1503 1502 1501 1500 1498 1498 1496 1495 1494 1495 1494 1493 1492 1491 1489 1486 1483 1480 1478 1475 1474 1473 1473 1473 1473 1473 1473 1473 1473 1473 1474 1475 1476 1476 1477 1476 1476 1476 1477 1479 1480
1525 1526 1527 1527 1528 1527 1524 1521 1522 1523 1522 1521 1521 1521 1522 1522 1523 1523 1522 1522 1521 1521 1520 1519 1519 1518 1516 1515 1514 1512 1510 1508 1508 1507 1504 1503 1502 1502 1502 1502 1502 1501 1501 1500 1500 1500 1499 1498 1497 1496 1496 1495 1494 1493 1493 1492 1491 1490 1489 1487 1485 1482 1479 1476 1474 1472 1471 1470 1469 1469 1469 1469 1469 1470 1471 1472 1473 1473 1473 1472 1471 1471 1472 1473 1474 1476
1522 1523 1524 1525 1526 1524 1520 1518 1518 1520 1520 1519 1519 1519 1520 1520 1521 1520 1520 1520 1519 1518 1517 1516 1515 1515 1514 1513 1511 1510 1508 1506 1505 1504 1502 1499 1498 1498 1498 1498 1498 1498 1497 1497 1497 1497 1496 1495 1494 1494 1493 1493 1492 1491 1491 1490 1489 1488 1487 1486 1484 1481 1477 1474 1471 1469 1468 1466 1465 1465 1465 1465 1465 1466 1466 1468 1468 1468 1467 1466 1465 1466 1467 1468 1470 1472
1515 1515 1517 1519 1519 1516 1514 1514 1516 1517 1517 1516 1517 1518 1518 1518 1518 1517 1517 1517 1516 1516 1515 1514 1512 1511 1510 1509 1508 1507 1505 1503 1502 1501 1498 1495 1494 1494 1493 1493 1493 1493 1493 1494 1494 1493 1493 1492 1491 1491 1491 1491 1490 1489 1489 1488 1487 1485 1484 1483 1481 1478 1475 1471 1468 1466 1465 1464 1464 1463 1462 1461 1461 1460 1460 1461 1461 1460 1459 1459 1460 1461 1463 1464 1466 1468